Weather History for Morelia, Mexico

Change the Weather History Date:

Friday, May 31, 2013

  Actual Average Record
Temperature  
Mean Temperature 72 °F -  
Max Temperature 91 °F 80 °F 94 °F (2012)
Min Temperature 53 °F 58 °F 53 °F (1997)
Cooling Degree Days 7    
Growing Degree Days 22 (Base 50)    
Moisture  
Dew Point 47 °F    
Average Humidity 48    
Maximum Humidity 94    
Minimum Humidity 11    
Precipitation  
Precipitation 0.00 in 0.18 in - ()
Sea Level Pressure  
Sea Level Pressure 29.95 in    
Wind  
Wind Speed 3 mph ()    
Max Wind Speed 14 mph    
Max Gust Speed 23 mph    
Visibility 6.9 miles    
Events      
Averages and records for this station are not official NWS values.
T = Trace of Precipitation, MM = Missing Value Source: Averaged Metar Reports

Daily Weather History Graph

Daily Weather History Graph

Search for Another Location

Airport:

Trip Planner

Search our weather history database for the weather conditions in past years. The results will help you decide how hot, cold, wet, or windy it might be!

Date:

Astronomy

May. 31, 2013 Rise Set
Actual Time 7:04 AM CDT 8:19 PM CDT
Civil Twilight 6:40 AM CDT 8:43 PM CDT
Nautical Twilight 6:11 AM CDT 9:12 PM CDT
Astronomical Twilight 5:41 AM CDT 9:42 PM CDT
Moon 1:31 AM CDT (5/31) 1:41 PM CDT (5/31)
Length of Visible Light 14h 03m
Length of Day
13h 14m
Waning Gibbous, 51% of the Moon is Illuminated
May 31
Waning Gibbous
May 31
Last Quarter
Jun 8
New
Jun 16
First Quarter
Jun 23
Full

Hourly Weather History & Observations

Time (CDT) Temp. Dew Point Humidity Pressure Visibility Wind Dir Wind Speed Gust Speed Precip Events Conditions
12:50 AM 66 °F 55 °F 60% 29.62 in 5 mi SW 2.2 mph - -   Partly Cloudy
1:46 AM 59.0 °F 51.8 °F 77% 30.13 in 6.0 mi Calm Calm - N/A   Scattered Clouds
2:51 AM 55.4 °F 51.8 °F 88% 30.11 in 6.0 mi Calm Calm - N/A   Scattered Clouds
3:46 AM 55.4 °F 51.8 °F 88% 29.66 in 6.0 mi Calm Calm - N/A   Clear
3:50 AM 62 °F 52 °F 61% 29.64 in 5 mi South 2.2 mph - -  
4:42 AM 53.6 °F 50.0 °F 88% 30.12 in 6.0 mi Calm Calm - N/A   Clear
6:40 AM 51.8 °F 50.0 °F 94% 29.69 in 7.0 mi Calm Calm - N/A   Clear
6:50 AM 57 °F 51 °F 73% 29.75 in 5 mi SW 2.2 mph - -  
7:44 AM 53.6 °F 50.0 °F 88% 30.17 in 7.0 mi Calm Calm - N/A   Clear
8:02 AM 55.4 °F 51.8 °F 88% 30.17 in 7.0 mi Calm Calm - N/A   Clear
8:31 AM 59.0 °F 51.8 °F 77% 30.18 in 7.0 mi Calm Calm - N/A   Clear
8:46 AM 60.8 °F 51.8 °F 72% 30.19 in 7.0 mi Calm Calm - N/A   Clear
9:01 AM 64.4 °F 51.8 °F 64% 30.19 in 7.0 mi Calm Calm - N/A   Clear
9:33 AM 68.0 °F 51.8 °F 56% 30.19 in 7.0 mi Calm Calm - N/A   Clear
9:42 AM 66.2 °F 51.8 °F 60% 29.80 in 7.0 mi Variable 2.3 mph - N/A   Clear
9:50 AM 70 °F 55 °F 48% 29.86 in 7 mi North 2.2 mph - -  
10:14 AM 69.8 °F 53.6 °F 56% 30.19 in 7.0 mi NNW 4.6 mph - N/A   Clear
10:43 AM 73.4 °F 53.6 °F 50% 30.19 in 7.0 mi Variable 3.5 mph - N/A   Clear
11:16 AM 77.0 °F 51.8 °F 41% 30.18 in 8.0 mi NE 4.6 mph - N/A   Clear
11:43 AM 77.0 °F 50.0 °F 39% 30.18 in 8.0 mi Variable 2.3 mph - N/A   Clear
12:24 PM 80.6 °F 50.0 °F 34% 30.16 in 8.0 mi NNW 8.1 mph - N/A   Clear
12:46 PM 82.4 °F 48.2 °F 30% 29.68 in 8.0 mi North 11.5 mph 23.0 mph N/A   Clear
12:50 PM 83 °F 45 °F 17% 29.80 in 7 mi North 4.5 mph - -  
1:43 PM 84.2 °F 42.8 °F 23% 30.12 in 8.0 mi NNW 13.8 mph - N/A   Clear
2:40 PM 69.8 °F 46.4 °F 43% 30.09 in 8.0 mi North 6.9 mph - N/A   Clear
3:47 PM 89.6 °F 39.2 °F 17% 29.56 in 8.0 mi NE 6.9 mph - N/A   Clear
3:55 PM 89 °F 43 °F 12% 29.68 in 7 mi SSE 2.2 mph - -  
4:45 PM 91.4 °F 30.2 °F 11% 30.02 in 8.0 mi ENE 12.7 mph - N/A   Partly Cloudy
5:49 PM 91.4 °F 33.8 °F 13% 30.01 in 8.0 mi North 11.5 mph - N/A   Partly Cloudy
6:45 PM 86.0 °F 33.8 °F 15% 29.56 in 8.0 mi NE 9.2 mph - N/A   Partly Cloudy
7:00 PM 85 °F 48 °F 18%  in 6 mi SSW 2.2 mph - -  
7:46 PM 84.2 °F 39.2 °F 20% 30.01 in 8.0 mi ENE 5.8 mph - N/A   Partly Cloudy
8:44 PM 75.2 °F 42.8 °F 31% 30.03 in 7.0 mi NE 3.5 mph - N/A   Clear
9:45 PM 78 °F 43 °F 19% 29.50 in 5 mi North 2.2 mph - -  
9:45 PM 75.2 °F 39.2 °F 27% 29.56 in 7.0 mi NE 3.5 mph - N/A   Clear
10:45 PM 69.8 °F 41.0 °F 35% 30.09 in 7.0 mi Calm Calm - N/A   Clear
11:45 PM 69.8 °F 42.8 °F 38% 30.12 in 7.0 mi East 6.9 mph - N/A   Clear